TimeMST,TemperatureF,Dew PointF,Humidity,Sea Level PressureIn,VisibilityMPH,Wind Direction,Wind SpeedMPH,Gust SpeedMPH,PrecipitationIn,Events,Conditions,WindDirDegrees,DateUTC
12:15 AM,28.4,10.4,47,30.15,10.0,Calm,Calm,-,N/A,,Clear,0,2012-11-25 07:15:00
12:35 AM,28.4,10.4,47,30.14,10.0,Calm,Calm,-,N/A,,Clear,0,2012-11-25 07:35:00
12:55 AM,32.0,10.4,41,30.14,10.0,Calm,Calm,-,N/A,,Clear,0,2012-11-25 07:55:00
1:15 AM,28.4,8.6,43,30.14,10.0,Calm,Calm,-,N/A,,Clear,0,2012-11-25 08:15:00
1:35 AM,26.6,8.6,47,30.14,10.0,Calm,Calm,-,N/A,,Clear,0,2012-11-25 08:35:00
1:55 AM,32.0,8.6,38,30.13,10.0,Calm,Calm,-,N/A,,Clear,0,2012-11-25 08:55:00
2:15 AM,30.2,6.8,37,30.13,10.0,Calm,Calm,-,N/A,,Clear,0,2012-11-25 09:15:00
2:35 AM,32.0,8.6,38,30.13,10.0,Calm,Calm,-,N/A,,Clear,0,2012-11-25 09:35:00
2:55 AM,37.4,8.6,30,30.13,10.0,Calm,Calm,-,N/A,,Clear,0,2012-11-25 09:55:00
3:15 AM,32.0,6.8,35,30.13,10.0,Calm,Calm,-,N/A,,Clear,0,2012-11-25 10:15:00
3:35 AM,26.6,6.8,43,30.12,10.0,Calm,Calm,-,N/A,,Clear,0,2012-11-25 10:35:00
3:55 AM,24.8,5.0,43,30.12,10.0,WNW,4.6,-,N/A,,Clear,290,2012-11-25 10:55:00
4:15 AM,26.6,6.8,43,30.12,10.0,West,3.5,-,N/A,,Clear,270,2012-11-25 11:15:00
4:35 AM,26.6,6.8,43,30.12,10.0,West,8.1,-,N/A,,Clear,280,2012-11-25 11:35:00
5:50 AM,26.6,6.8,43,30.13,10.0,WNW,8.1,-,N/A,,Clear,290,2012-11-25 12:50:00
6:50 AM,24.8,6.8,46,30.13,10.0,Calm,Calm,-,N/A,,Clear,0,2012-11-25 13:50:00
7:50 AM,32.0,6.8,35,30.14,10.0,Calm,Calm,-,N/A,,Clear,0,2012-11-25 14:50:00
8:50 AM,41.0,10.4,29,30.15,10.0,Calm,Calm,-,N/A,,Clear,0,2012-11-25 15:50:00
9:50 AM,48.2,14.0,25,30.15,10.0,Calm,Calm,-,N/A,,Clear,0,2012-11-25 16:50:00
10:50 AM,50.0,14.0,24,30.13,10.0,SE,4.6,-,N/A,,Clear,140,2012-11-25 17:50:00
11:50 AM,53.6,14.0,21,30.09,10.0,Variable,6.9,-,N/A,,Clear,0,2012-11-25 18:50:00
12:50 PM,55.4,14.0,20,30.05,10.0,SSE,9.2,-,N/A,,Clear,160,2012-11-25 19:50:00
1:50 PM,57.2,14.0,18,30.03,10.0,SE,6.9,-,N/A,,Clear,130,2012-11-25 20:50:00
2:50 PM,57.2,14.0,18,30.00,10.0,Calm,Calm,-,N/A,,Clear,0,2012-11-25 21:50:00
3:50 PM,57.2,14.0,18,29.99,10.0,Calm,Calm,-,N/A,,Clear,0,2012-11-25 22:50:00
4:50 PM,50.0,12.2,22,29.99,10.0,South,8.1,-,N/A,,Clear,180,2012-11-25 23:50:00
5:50 PM,42.8,10.4,27,30.00,10.0,SSW,8.1,-,N/A,,Clear,210,2012-11-26 00:50:00
6:50 PM,41.0,10.4,29,30.00,10.0,SSW,9.2,-,N/A,,Clear,210,2012-11-26 01:50:00
8:50 PM,35.6,10.4,35,30.02,10.0,Calm,Calm,-,N/A,,Clear,0,2012-11-26 03:50:00
9:15 PM,42.8,12.2,29,30.02,10.0,Calm,Calm,-,N/A,,Clear,0,2012-11-26 04:15:00
9:35 PM,32.0,6.8,35,30.03,10.0,West,4.6,-,N/A,,Clear,270,2012-11-26 04:35:00
9:45 PM,30.2,6.8,37,30.03,10.0,WSW,4.6,-,N/A,,Clear,250,2012-11-26 04:45:00
9:55 PM,33.8,8.6,35,30.03,10.0,WSW,5.8,-,N/A,,Clear,250,2012-11-26 04:55:00
10:15 PM,37.4,8.6,30,30.04,10.0,WSW,6.9,-,N/A,,Clear,240,2012-11-26 05:15:00
10:35 PM,33.8,6.8,32,30.04,10.0,West,8.1,-,N/A,,Clear,260,2012-11-26 05:35:00
10:55 PM,32.0,6.8,35,30.04,10.0,WNW,8.1,-,N/A,,Clear,300,2012-11-26 05:55:00
11:15 PM,32.0,6.8,35,30.04,10.0,WNW,6.9,-,N/A,,Clear,300,2012-11-26 06:15:00
11:35 PM,28.4,6.8,40,30.04,10.0,West,8.1,-,N/A,,Clear,260,2012-11-26 06:35:00
11:55 PM,35.6,8.6,33,30.05,10.0,West,6.9,-,N/A,,Clear,280,2012-11-26 06:55:00